| time (UTC) | temp C | wind direction | speed KPH | gust KPH | rain 1hr cm | rain 24hr cm | rain mn cm | humidity % | barometer mb |
| 20260831035222 | 15 | 168 | 4.8 | 8.0 | 0.00 | 0.00 | 0.00 | 65 | 1016.0 |
| 20260831034620 | 15 | 162 | 4.8 | 4.8 | 0.00 | 0.00 | 0.00 | 62 | 1016.0 |
| 20260831034016 | 15 | 168 | 0.0 | 0.0 | 0.00 | 0.00 | 0.00 | 61 | 1016.0 |
| 20260831032210 | 15 | 158 | 0.0 | 0.0 | 0.00 | 0.00 | 0.00 | 62 | 1016.0 |
| 20260831031007 | 15 | 161 | 4.8 | 6.4 | 0.00 | 0.00 | 0.00 | 64 | 1016.0 |
| 20260831024552 | 15 | 152 | 6.4 | 8.0 | 0.00 | 0.00 | 0.00 | 65 | 1016.0 |
| 20260831023350 | 15 | 177 | 0.0 | 4.8 | 0.00 | 0.00 | 0.00 | 59 | 1016.0 |
| 20260831023347 | -17 | 177 | 0.0 | 4.8 | 0.00 | 0.15 | 0.00 | 59 | 1016.0 |
| 20260831023345 | 15 | 177 | 0.0 | 4.8 | 0.00 | 0.00 | 0.00 | 59 | 1016.0 |
| 20260831022140 | 15 | 176 | 4.8 | 4.8 | 0.00 | 0.00 | 0.00 | 55 | 1017.0 |
| 20260831020935 | 15 | 187 | 8.0 | 8.0 | 0.00 | 0.00 | 0.00 | 54 | 1017.0 |
| 20260831020335 | 16 | 194 | 11.3 | 11.3 | 0.00 | 0.00 | 0.00 | 53 | 1017.0 |
| 20260831015731 | 16 | 164 | 8.0 | 8.0 | 0.00 | 0.00 | 0.00 | 52 | 1017.0 |
| 20260831013918 | 17 | 210 | 8.0 | 9.7 | 0.00 | 0.00 | 0.00 | 50 | 1016.0 |
| 20260831012711 | 16 | 179 | 11.3 | 11.3 | 0.00 | 0.00 | 0.00 | 58 | 1016.0 |
| 20260831012111 | 15 | 162 | 0.0 | 0.0 | 0.00 | 0.00 | 0.00 | 50 | 1014.0 |
| 20260831012106 | 15 | 162 | 0.0 | 0.0 | 0.00 | 0.00 | 0.00 | 50 | 1014.0 |
| 20260831005053 | 15 | 161 | 3.2 | 3.2 | 0.00 | 0.00 | 0.00 | 49 | 1014.0 |
| 20260831004452 | 15 | 162 | 0.0 | 0.0 | 0.00 | 0.00 | 0.00 | 48 | 1014.0 |
| 20260831003848 | 15 | 162 | 0.0 | 0.0 | 0.00 | 0.00 | 0.00 | 48 | 1014.0 |
| 20260831003245 | 15 | 162 | 0.0 | 0.0 | 0.00 | 0.00 | 0.00 | 48 | 1014.0 |
| 20260831002042 | 15 | 162 | 0.0 | 0.0 | 0.00 | 0.00 | 0.00 | 48 | 1014.0 |
| 20260831001453 | 15 | 162 | 0.0 | 0.0 | 0.00 | 0.00 | 0.00 | 48 | 1014.0 |
| 20260831001439 | 15 | 162 | 0.0 | 0.0 | 0.00 | 0.00 | 0.00 | 48 | 1014.0 |
| 20260831000235 | 15 | 161 | 0.0 | 3.2 | 0.00 | 0.00 | 0.00 | 48 | 1014.0 |
| 20260830235633 | 15 | 161 | 0.0 | 3.2 | 0.00 | 0.00 | 0.00 | 47 | 1014.0 |
| 20260830234434 | 16 | 163 | 0.0 | 4.8 | 0.00 | 0.00 | 0.00 | 47 | 1014.0 |
| 20260830233832 | 16 | 162 | 3.2 | 3.2 | 0.00 | 0.00 | 0.00 | 47 | 1014.0 |
| 20260830233228 | 16 | 162 | 0.0 | 3.2 | 0.00 | 0.00 | 0.00 | 47 | 1014.0 |
| 20260830232019 | 15 | 162 | 0.0 | 0.0 | 0.00 | 0.00 | 0.00 | 46 | 1014.0 |
| 20260830231421 | 15 | 162 | 0.0 | 0.0 | 0.00 | 0.00 | 0.00 | 46 | 1014.0 |
| 20260830230820 | 15 | 162 | 0.0 | 0.0 | 0.00 | 0.00 | 0.00 | 46 | 1014.0 |
| 20260830225651 | 15 | 162 | 3.2 | 3.2 | 0.00 | 0.00 | 0.00 | 46 | 1014.0 |
| 20260830225617 | 15 | 162 | 3.2 | 3.2 | 0.00 | 0.00 | 0.00 | 46 | 1014.0 |
| 20260830225013 | 15 | 162 | 0.0 | 0.0 | 0.00 | 0.00 | 0.00 | 45 | 1014.0 |
| 20260830224409 | 15 | 162 | 0.0 | 0.0 | 0.00 | 0.00 | 0.00 | 45 | 1014.0 |
| 20260830223808 | 15 | 162 | 0.0 | 0.0 | 0.00 | 0.00 | 0.00 | 44 | 1014.0 |
| 20260830221958 | 16 | 162 | 0.0 | 0.0 | 0.00 | 0.00 | 0.00 | 44 | 1014.0 |
| 20260830221357 | 16 | 162 | 0.0 | 0.0 | 0.00 | 0.00 | 0.00 | 44 | 1014.0 |
| 20260830221353 | 16 | 162 | 0.0 | 0.0 | 0.00 | 0.00 | 0.00 | 44 | 1014.0 |
| 20260830220150 | 16 | 162 | 0.0 | 0.0 | 0.00 | 0.00 | 0.00 | 44 | 1014.0 |
| 20260830214947 | 16 | 162 | 0.0 | 0.0 | 0.00 | 0.00 | 0.00 | 44 | 1015.0 |
| 20260830214343 | 16 | 162 | 0.0 | 0.0 | 0.00 | 0.00 | 0.00 | 43 | 1015.0 |
| 20260830213139 | 16 | 162 | 0.0 | 0.0 | 0.00 | 0.00 | 0.00 | 42 | 1015.0 |
| 20260830212534 | 16 | 162 | 0.0 | 0.0 | 0.00 | 0.00 | 0.00 | 43 | 1015.0 |
| 20260830211933 | 16 | 162 | 0.0 | 0.0 | 0.00 | 0.00 | 0.00 | 43 | 1015.0 |
| 20260830203118 | 17 | 162 | 0.0 | 0.0 | 0.00 | 0.00 | 0.00 | 39 | 1015.0 |
| 20260830202514 | 17 | 162 | 0.0 | 0.0 | 0.00 | 0.00 | 0.00 | 39 | 1015.0 |
| 20260830201915 | 17 | 161 | 0.0 | 3.2 | 0.00 | 0.00 | 0.00 | 39 | 1015.0 |
| 20260830201314 | 17 | 162 | 0.0 | 0.0 | 0.00 | 0.00 | 0.00 | 39 | 1015.0 |
| 20260830200711 | 17 | 162 | 0.0 | 3.2 | 0.00 | 0.00 | 0.00 | 38 | 1015.0 |
| 20260830200110 | 17 | 162 | 0.0 | 0.0 | 0.00 | 0.00 | 0.00 | 36 | 1015.0 |
| 20260830195508 | 17 | 161 | 0.0 | 3.2 | 0.00 | 0.00 | 0.00 | 36 | 1015.0 |
| 20260830192455 | 17 | 162 | 0.0 | 0.0 | 0.00 | 0.00 | 0.00 | 35 | 1015.0 |
| 20260830191855 | 17 | 162 | 0.0 | 0.0 | 0.00 | 0.00 | 0.00 | 34 | 1015.0 |
| 20260830190648 | 17 | 162 | 0.0 | 0.0 | 0.00 | 0.00 | 0.00 | 34 | 1015.0 |
| 20260830185447 | 17 | 162 | 0.0 | 0.0 | 0.00 | 0.00 | 0.00 | 33 | 1015.0 |
| 20260830184245 | 18 | 161 | 0.0 | 3.2 | 0.00 | 0.00 | 0.00 | 31 | 1015.0 |
| 20260830182430 | 18 | 162 | 0.0 | 0.0 | 0.00 | 0.00 | 0.00 | 29 | 1015.0 |
| 20260830181830 | 18 | 162 | 0.0 | 0.0 | 0.00 | 0.00 | 0.00 | 29 | 1015.0 |
| 20260830181225 | 19 | 162 | 0.0 | 0.0 | 0.00 | 0.00 | 0.00 | 28 | 1015.0 |
| 20260830180628 | 19 | 162 | 0.0 | 3.2 | 0.00 | 0.00 | 0.00 | 27 | 1015.0 |
| 20260830175418 | 20 | 162 | 4.8 | 4.8 | 0.00 | 0.00 | 0.00 | 26 | 1015.0 |
| 20260830174213 | 20 | 162 | 0.0 | 0.0 | 0.00 | 0.00 | 0.00 | 23 | 1015.0 |
| 20260830173612 | 20 | 162 | 0.0 | 0.0 | 0.00 | 0.00 | 0.00 | 23 | 1015.0 |
| 20260830173006 | 21 | 162 | 3.2 | 3.2 | 0.00 | 0.00 | 0.00 | 23 | 1015.0 |
| 20260830172400 | 21 | 161 | 4.8 | 4.8 | 0.00 | 0.00 | 0.00 | 22 | 1015.0 |
| 20260830171831 | 21 | 162 | 0.0 | 0.0 | 0.00 | 0.00 | 0.00 | 22 | 1015.0 |
| 20260830171758 | 21 | 162 | 0.0 | 0.0 | 0.00 | 0.00 | 0.00 | 22 | 1015.0 |
| 20260830171156 | 22 | 162 | 0.0 | 0.0 | 0.00 | 0.00 | 0.00 | 22 | 1015.0 |
| 20260830170554 | 22 | 162 | 0.0 | 0.0 | 0.00 | 0.00 | 0.00 | 21 | 1015.0 |
| 20260830165953 | 22 | 162 | 0.0 | 0.0 | 0.00 | 0.00 | 0.00 | 21 | 1015.0 |
| 20260830165352 | 22 | 162 | 0.0 | 0.0 | 0.00 | 0.00 | 0.00 | 21 | 1015.0 |
| 20260830164747 | 22 | 162 | 0.0 | 0.0 | 0.00 | 0.00 | 0.00 | 21 | 1015.0 |
| 20260830164143 | 22 | 161 | 0.0 | 0.0 | 0.00 | 0.00 | 0.00 | 21 | 1015.0 |
| 20260830162941 | 22 | 162 | 0.0 | 3.2 | 0.00 | 0.00 | 0.00 | 18 | 1015.0 |
| 20260830161128 | 23 | 161 | 4.8 | 4.8 | 0.00 | 0.00 | 0.00 | 18 | 1015.0 |
| 20260830160525 | 23 | 160 | 0.0 | 3.2 | 0.00 | 0.00 | 0.00 | 18 | 1015.0 |
| 20260830155920 | 22 | 161 | 0.0 | 4.8 | 0.00 | 0.00 | 0.00 | 18 | 1015.0 |
| 20260830155323 | 22 | 161 | 3.2 | 3.2 | 0.00 | 0.00 | 0.00 | 18 | 1015.0 |
| 20260830154113 | 22 | 161 | 4.8 | 4.8 | 0.00 | 0.00 | 0.00 | 16 | 1015.0 |
| 20260830151705 | 23 | 160 | 4.8 | 4.8 | 0.00 | 0.00 | 0.00 | 15 | 1015.0 |
| 20260830150501 | 24 | 148 | 4.8 | 4.8 | 0.00 | 0.00 | 0.00 | 18 | 1015.0 |
| 20260830144656 | 23 | 146 | 4.8 | 4.8 | 0.00 | 0.00 | 0.00 | 15 | 1015.0 |
| 20260830144054 | 23 | 146 | 0.0 | 3.2 | 0.00 | 0.00 | 0.00 | 15 | 1015.0 |
| 20260830142851 | 24 | 117 | 4.8 | 4.8 | 0.00 | 0.00 | 0.00 | 13 | 1015.0 |
| 20260830142246 | 25 | 119 | 4.8 | 4.8 | 0.00 | 0.00 | 0.00 | 15 | 1015.0 |
| 20260830141044 | 25 | 119 | 0.0 | 4.8 | 0.00 | 0.00 | 0.00 | 15 | 1015.0 |
| 20260830140441 | 25 | 119 | 3.2 | 4.8 | 0.00 | 0.00 | 0.00 | 15 | 1015.0 |
| 20260830135838 | 25 | 119 | 3.2 | 4.8 | 0.00 | 0.00 | 0.00 | 15 | 1015.0 |
| 20260830134030 | 25 | 229 | 3.2 | 4.8 | 0.00 | 0.00 | 0.00 | 15 | 1015.0 |
| 20260830131013 | 24 | 173 | 4.8 | 4.8 | 0.00 | 0.00 | 0.00 | 15 | 1015.0 |
| 20260830130410 | 23 | 176 | 3.2 | 8.0 | 0.00 | 0.00 | 0.00 | 15 | 1015.0 |
| 20260830125807 | 24 | 160 | 6.4 | 6.4 | 0.00 | 0.00 | 0.00 | 13 | 1015.0 |
| 20260830125205 | 24 | 196 | 3.2 | 4.8 | 0.00 | 0.00 | 0.00 | 15 | 1015.0 |
| 20260830123958 | 24 | 179 | 6.4 | 6.4 | 0.00 | 0.00 | 0.00 | 13 | 1015.0 |
| 20260830123355 | 23 | 166 | 4.8 | 4.8 | 0.00 | 0.00 | 0.00 | 13 | 1015.0 |
| 20260830122753 | 24 | 161 | 4.8 | 6.4 | 0.00 | 0.00 | 0.00 | 15 | 1015.0 |
| 20260830122152 | 24 | 164 | 4.8 | 4.8 | 0.00 | 0.00 | 0.00 | 13 | 1016.0 |
| 20260830120946 | 24 | 224 | 4.8 | 8.0 | 0.00 | 0.00 | 0.00 | 13 | 1016.0 |
| 20260830120342 | 24 | 221 | 3.2 | 4.8 | 0.00 | 0.00 | 0.00 | 15 | 1016.0 |
| 20260830115134 | 23 | 176 | 4.8 | 6.4 | 0.00 | 0.00 | 0.00 | 15 | 1016.0 |
| 20260830114531 | 23 | 191 | 4.8 | 4.8 | 0.00 | 0.00 | 0.00 | 13 | 1016.0 |
| 20260830113929 | 23 | 351 | 3.2 | 4.8 | 0.00 | 0.00 | 0.00 | 15 | 1016.0 |
| 20260830112121 | 24 | 268 | 3.2 | 3.2 | 0.00 | 0.00 | 0.00 | 15 | 1016.0 |
| 20260830103304 | 23 | 256 | 4.8 | 4.8 | 0.00 | 0.00 | 0.00 | 15 | 1016.0 |
| 20260830102059 | 23 | 170 | 4.8 | 4.8 | 0.00 | 0.00 | 0.00 | 15 | 1016.0 |
| 20260830101456 | 23 | 188 | 3.2 | 3.2 | 0.00 | 0.00 | 0.00 | 18 | 1016.0 |
| 20260830100856 | 23 | 188 | 4.8 | 6.4 | 0.00 | 0.00 | 0.00 | 15 | 1016.0 |
| 20260830100253 | 23 | 188 | 0.0 | 3.2 | 0.00 | 0.00 | 0.00 | 21 | 1016.0 |
| 20260830095652 | 22 | 188 | 4.8 | 4.8 | 0.00 | 0.00 | 0.00 | 18 | 1016.0 |
| 20260830095051 | 22 | 196 | 3.2 | 4.8 | 0.00 | 0.00 | 0.00 | 21 | 1016.0 |
| 20260830093242 | 22 | 201 | 3.2 | 4.8 | 0.00 | 0.00 | 0.00 | 21 | 1016.0 |
| 20260830091435 | 22 | 200 | 0.0 | 4.8 | 0.00 | 0.00 | 0.00 | 22 | 1017.0 |
| 20260830090832 | 22 | 200 | 4.8 | 4.8 | 0.00 | 0.00 | 0.00 | 21 | 1017.0 |
| 20260830090231 | 22 | 238 | 3.2 | 3.2 | 0.00 | 0.00 | 0.00 | 23 | 1017.0 |
| 20260830085023 | 21 | 190 | 3.2 | 4.8 | 0.00 | 0.00 | 0.00 | 22 | 1017.0 |
| 20260830084422 | 21 | 190 | 3.2 | 3.2 | 0.00 | 0.00 | 0.00 | 24 | 1017.0 |
| 20260830082611 | 21 | 186 | 0.0 | 0.0 | 0.00 | 0.00 | 0.00 | 24 | 1017.0 |
| 20260830081411 | 20 | 185 | 0.0 | 4.8 | 0.00 | 0.00 | 0.00 | 24 | 1017.0 |
| 20260830080813 | 20 | 246 | 0.0 | 3.2 | 0.00 | 0.00 | 0.00 | 25 | 1017.0 |
| 20260830080808 | 20 | 246 | 0.0 | 3.2 | 0.00 | 0.00 | 0.00 | 25 | 1017.0 |
| 20260830075000 | 20 | 267 | 4.8 | 4.8 | 0.00 | 0.00 | 0.00 | 25 | 1017.0 |
| 20260830074356 | 19 | 159 | 3.2 | 4.8 | 0.00 | 0.00 | 0.00 | 27 | 1017.0 |
| 20260830073154 | 18 | 160 | 3.2 | 3.2 | 0.00 | 0.00 | 0.00 | 31 | 1017.0 |
| 20260830071952 | 18 | 155 | 3.2 | 4.8 | 0.00 | 0.00 | 0.00 | 32 | 1017.0 |
| 20260830071350 | 18 | 155 | 3.2 | 3.2 | 0.00 | 0.00 | 0.00 | 33 | 1017.0 |
| 20260830063724 | 17 | 154 | 3.2 | 3.2 | 0.00 | 0.00 | 0.00 | 36 | 1017.0 |
| 20260830062521 | 17 | 154 | 0.0 | 0.0 | 0.00 | 0.00 | 0.00 | 37 | 1017.0 |
| 20260830061317 | 16 | 154 | 0.0 | 0.0 | 0.00 | 0.00 | 0.00 | 36 | 1017.0 |
| 20260830060715 | 16 | 154 | 0.0 | 0.0 | 0.00 | 0.00 | 0.00 | 36 | 1017.0 |
| 20260830055514 | 15 | 154 | 0.0 | 0.0 | 0.00 | 0.00 | 0.00 | 35 | 1017.0 |
| 20260830054909 | 16 | 154 | 0.0 | 0.0 | 0.00 | 0.00 | 0.00 | 34 | 1017.0 |
| 20260830054307 | 16 | 154 | 0.0 | 0.0 | 0.00 | 0.00 | 0.00 | 34 | 1017.0 |
| 20260830053100 | 16 | 154 | 0.0 | 0.0 | 0.00 | 0.00 | 0.00 | 34 | 1016.0 |
| 20260830052458 | 16 | 154 | 0.0 | 0.0 | 0.00 | 0.00 | 0.00 | 34 | 1016.0 |
| 20260830051901 | 16 | 155 | 0.0 | 0.0 | 0.00 | 0.00 | 0.00 | 33 | 1016.0 |
| 20260830051856 | 16 | 155 | 0.0 | 0.0 | 0.00 | 0.00 | 0.00 | 33 | 1016.0 |
| 20260830050649 | 16 | 155 | 0.0 | 0.0 | 0.00 | 0.00 | 0.00 | 31 | 1017.0 |
| 20260830050046 | 16 | 154 | 0.0 | 0.0 | 0.00 | 0.00 | 0.00 | 29 | 1017.0 |
| 20260830044840 | 16 | 154 | 0.0 | 0.0 | 0.00 | 0.00 | 0.00 | 28 | 1016.0 |
| 20260830044234 | 17 | 154 | 0.0 | 0.0 | 0.00 | 0.00 | 0.00 | 28 | 1016.0 |
| 20260830043634 | 17 | 155 | 4.8 | 4.8 | 0.00 | 0.00 | 0.00 | 28 | 1016.0 |
| 20260830043031 | 17 | 154 | 4.8 | 4.8 | 0.00 | 0.00 | 0.00 | 28 | 1016.0 |
| 20260830042426 | 17 | 154 | 4.8 | 4.8 | 0.00 | 0.00 | 0.00 | 27 | 1016.0 |
| 20260830041222 | 17 | 154 | 3.2 | 3.2 | 0.00 | 0.00 | 0.00 | 27 | 1016.0 |